[[{"header":{"parameterUnit":"m.s-1","parameterCategory":1,"la1":30.2991,"la2":30.254,"lo1":-89.0895,"lo2":-89.0444,"dy":0.0017,"dx":0.0017,"nx":28,"ny":28,"refTime":"2026-02-26T09:00:00:Z","depth":0,"parameterNumber":2,"parameterNumberName":"U-component_of_WINDS"},"data":[0,0,0,0,0,0,0,0,0,0,0,0,0,0,0,0,0,0,0,0,0,0,0,0,0,0,0,0,0,0,0,0,0,0,0,0,0,0,0,0,0,0,0,0,0,0,0,0,0,0,0,0,0,0,0,0,0,0,-1.1557,-1.1557,0,-1.1597,-1.1597,-1.1598,-1.1577,-1.1576,-1.1575,-1.1574,-1.162,-1.1622,-1.1624,0,0,0,0,0,0,0,0,0,0,0,0,0,-1.1467,-1.1469,-1.1557,-1.1557,-1.1558,-1.1597,-1.1597,-1.1598,-1.1578,-1.1576,-1.1575,-1.1574,-1.1619,-1.1622,-1.1624,0,0,0,0,0,0,0,0,0,0,0,0,0,-1.1507,-1.147,-1.1557,-1.1552,-1.1552,-1.1596,-1.1597,-1.1598,-1.1578,-1.1576,-1.1575,-1.1573,-1.1618,-1.1621,-1.1625,-1.1677,0,0,-1.1635,-1.1636,0,0,0,0,0,0,0,0,-1.1505,-1.151,-1.1553,-1.1553,-1.1553,-1.158,-1.1582,-1.1625,-1.1578,-1.1568,-1.1574,-1.1572,-1.1608,-1.1612,-1.1623,-1.1679,-1.1681,-1.1635,-1.1637,-1.1638,-1.1639,0,0,0,0,0,0,0,-1.1502,-1.1508,-1.1573,-1.1553,-1.1553,-1.155,-1.1553,-1.159,-1.1597,-1.1569,-1.1568,-1.1572,-1.1608,-1.162,-1.1624,-1.1682,-1.1635,-1.1638,-1.164,-1.1641,-1.1782,-1.1784,0,0,0,0,0,0,-1.1499,-1.1506,-1.1572,-1.1574,-1.1524,-1.1553,-1.1557,-1.1573,-1.1596,-1.1598,-1.1574,-1.1571,-1.1615,-1.162,-1.1626,-1.1689,-1.1638,-1.1641,-1.1643,-1.1781,-1.1783,-1.1785,0,0,0,0,0,0,-1.1497,-1.1505,-1.157,-1.154,-1.1548,-1.1556,-1.1574,-1.1575,-1.1587,-1.16,-1.1601,-1.1585,-1.1614,-1.1621,-1.1664,-1.169,-1.1643,-1.1646,-1.1779,-1.1781,-1.1784,-1.1816,0,0,0,0,0,0,-1.1494,-1.1504,-1.1523,-1.154,-1.1549,-1.1607,-1.1576,-1.1577,-1.1592,-1.1589,-1.1611,-1.1613,-1.1614,-1.1659,-1.1667,-1.1694,-1.1649,-1.1776,-1.178,-1.1783,-1.1813,-1.1819,-1.1825,0,0,0,0,0,-1.1491,-1.1532,-1.1524,-1.1533,-1.1573,-1.1608,-1.1613,-1.1612,-1.1594,-1.1614,-1.1622,-1.1612,-1.1686,-1.1664,-1.1673,-1.1701,-1.1775,-1.1779,-1.1783,-1.181,-1.1818,-1.1825,0,0,0,0,0,0,-1.152,-1.1534,-1.1526,-1.1573,-1.1589,-1.1605,-1.163,-1.1621,-1.1644,-1.1641,-1.164,-1.1645,-1.169,-1.1699,-1.1675,-1.1753,-1.1728,-1.1734,-1.1745,-1.1753,-1.1759,-1.1757,-1.1651,0,0,0,0,0,-1.1531,-1.1557,-1.1568,-1.1609,-1.1617,-1.1622,-1.1637,-1.1635,-1.1652,-1.166,-1.1671,-1.169,-1.1717,-1.1735,-1.1761,-1.1813,-1.1818,-1.1837,-1.1843,-1.1848,-1.1854,-1.1883,-1.1892,-1.1798,-1.1798,-1.1798,0,0,-1.1556,-1.1567,-1.1584,-1.1615,-1.1627,-1.1655,-1.1628,-1.1659,-1.168,-1.1665,-1.1706,-1.1715,-1.1735,-1.1783,-1.1805,-1.1793,-1.1881,-1.1853,-1.1857,-1.186,-1.1888,-1.1897,-1.1905,-1.1801,-1.18,-1.18,0,0,-1.1616,-1.1626,-1.166,-1.1673,-1.1691,-1.1694,-1.1702,-1.1718,-1.1723,-1.1764,-1.1753,-1.1778,-1.1825,-1.1841,-1.1855,-1.1918,-1.191,-1.1927,-1.1961,-1.1989,-1.1996,-1.2003,-1.2027,-1.2035,-1.1932,-1.1932,-1.1932,0,-1.1645,-1.1685,-1.168,-1.1711,-1.1726,-1.1711,-1.1747,-1.176,-1.1786,-1.1797,-1.1783,-1.1841,-1.1854,-1.1905,-1.1921,-1.1932,-1.1943,-1.1926,-1.1995,-1.2002,-1.2008,-1.2031,-1.204,-1.1934,-1.1934,-1.1934,-1.1934,0,-1.172,-1.1748,-1.1774,-1.1799,-1.1816,-1.185,-1.1851,-1.1869,-1.1865,-1.1869,-1.1911,-1.1926,-1.1954,-1.1966,-1.1963,-1.2017,-1.2009,-1.1995,-1.197,-1.2019,-1.2041,-1.2049,-1.1937,-1.1937,-1.1936,-1.1935,0,0,-1.1801,-1.182,-1.183,-1.1841,-1.186,-1.1882,-1.1915,-1.1941,-1.1958,-1.1976,-1.2005,-1.2044,-1.2031,-1.2046,-1.2044,-1.2069,-1.212,-1.2052,-1.2052,-1.2065,-1.2182,-1.2194,-1.2204,-1.2113,-1.2115,-1.2116,-1.2181,0,-1.1863,-1.1919,-1.1915,-1.1969,-1.1996,-1.1981,-1.201,-1.2025,-1.203,-1.2054,-1.206,-1.2088,-1.2068,-1.2077,-1.21,-1.2109,-1.2144,-1.2104,-1.2142,-1.2143,-1.2139,-1.2215,-1.2228,-1.2289,-1.2189,-1.219,-1.2192,0,-1.1943,-1.1963,-1.2019,-1.2033,-1.2044,-1.207,-1.2093,-1.2116,-1.2133,-1.2135,-1.2151,-1.2145,-1.218,-1.2152,-1.2201,-1.2174,-1.2189,-1.2195,-1.2197,-1.2203,-1.2172,-1.2224,-1.2308,-1.2318,-1.2205,-1.2204,-1.2203,0,-1.1999,-1.2038,-1.2077,-1.2087,-1.2104,-1.2122,-1.2131,-1.2146,-1.2162,-1.2182,-1.2193,-1.2218,-1.2233,-1.2253,-1.2254,-1.2233,-1.2303,-1.2275,-1.2307,-1.2307,-1.2325,-1.2324,-1.2414,-1.2331,-1.2331,-1.2331,-1.2331,0,-1.2069,-1.2105,-1.2102,-1.2126,-1.2166,-1.2161,-1.22,-1.2207,-1.222,-1.2246,-1.2234,-1.226,-1.2258,-1.2284,-1.2285,-1.2326,-1.2332,-1.2336,-1.2336,-1.2338,-1.2338,-1.2349,-1.2346,-1.2333,-1.2333,-1.2332,-1.2332,0,-1.2139,-1.2138,-1.218,-1.2191,-1.2195,-1.2224,-1.2235,-1.2258,-1.2261,-1.2294,-1.2301,-1.2307,-1.2336,-1.2338,-1.2373,-1.2374,-1.2424,-1.2418,-1.2418,-1.2417,-1.245,-1.2447,-1.2552,-1.2566,-1.2472,-1.2473,-1.2474,0,-1.2185,-1.2211,-1.2225,-1.2241,-1.225,-1.2275,-1.2291,-1.2287,-1.2304,-1.2325,-1.2346,-1.2374,-1.2396,-1.2444,-1.2452,-1.2479,-1.2475,-1.251,-1.2479,-1.248,-1.2478,-1.2477,-1.248,-1.2517,-1.2518,-1.2518,-1.2519,0,-1.2267,-1.2265,-1.2287,-1.231,-1.2328,-1.2346,-1.2362,-1.2376,-1.2374,-1.2394,-1.2423,-1.244,-1.2474,-1.2503,-1.2528,-1.2538,-1.2529,-1.2528,-1.2537,-1.2541,-1.254,-1.2542,-1.2436,-1.2526,-1.2526,-1.2525,-1.2525,-1.2524,-1.2328,-1.2351,-1.2364,-1.2389,-1.24,-1.2416,-1.2438,-1.2443,-1.2466,-1.2493,-1.2489,-1.2522,-1.2538,-1.2571,-1.2583,-1.2609,-1.2598,-1.2611,-1.2614,-1.2618,-1.2622,-1.2533,-1.2614,-1.2614,-1.2613,-1.2613,-1.2613,0,-1.2411,-1.2418,-1.2441,-1.2463,-1.2483,-1.247,-1.2487,-1.2506,-1.2534,-1.2549,-1.257,-1.2604,-1.2631,-1.264,-1.2667,-1.2686,-1.2683,-1.2694,-1.2694,-1.2696,-1.263,-1.262,-1.2696,-1.2696,-1.2696,-1.2696,-1.2696,-1.2696,-1.2457,-1.2495,-1.2495,-1.2539,-1.2546,-1.2577,-1.2588,-1.2602,-1.2614,-1.2652,-1.2673,-1.2678,-1.2691,-1.2719,-1.2743,-1.2745,-1.2757,-1.277,-1.2771,-1.2709,-1.2701,-1.2693,-1.2684,-1.2772,-1.2772,-1.2835,-1.2835,-1.2836]},{"header":{"parameterUnit":"m.s-1","parameterCategory":1,"la1":30.2991,"la2":30.254,"lo1":-89.0895,"lo2":-89.0444,"dy":0.0017,"dx":0.0017,"nx":28,"ny":28,"refTime":"2026-02-26T09:00:00:Z","depth":0,"parameterNumber":3,"parameterNumberName":"V-component_of_WINDS"},"data":[0,0,0,0,0,0,0,0,0,0,0,0,0,0,0,0,0,0,0,0,0,0,0,0,0,0,0,0,0,0,0,0,0,0,0,0,0,0,0,0,0,0,0,0,0,0,0,0,0,0,0,0,0,0,0,0,0,0,-2.6734,-2.6734,0,-2.6758,-2.6758,-2.6759,-2.6725,-2.6724,-2.6723,-2.6721,-2.6744,-2.6746,-2.6748,0,0,0,0,0,0,0,0,0,0,0,0,0,-2.6657,-2.6658,-2.6734,-2.6734,-2.6735,-2.6758,-2.6758,-2.6759,-2.6725,-2.6724,-2.6722,-2.6721,-2.6744,-2.6746,-2.6748,0,0,0,0,0,0,0,0,0,0,0,0,0,-2.6686,-2.6659,-2.6734,-2.6721,-2.672,-2.6758,-2.6758,-2.6759,-2.6725,-2.6724,-2.6722,-2.672,-2.6743,-2.6745,-2.6748,-2.68,0,0,-2.6756,-2.6757,0,0,0,0,0,0,0,0,-2.6685,-2.6689,-2.6722,-2.6722,-2.6721,-2.6737,-2.6739,-2.6772,-2.6726,-2.6723,-2.6721,-2.6719,-2.6743,-2.6745,-2.6754,-2.6801,-2.6802,-2.6756,-2.6758,-2.6759,-2.6759,0,0,0,0,0,0,0,-2.6683,-2.6688,-2.6743,-2.6723,-2.6722,-2.6713,-2.6715,-2.6746,-2.6743,-2.6723,-2.6721,-2.6724,-2.6742,-2.6751,-2.6754,-2.6802,-2.6756,-2.6758,-2.676,-2.6761,-2.6893,-2.6895,0,0,0,0,0,0,-2.6683,-2.6687,-2.6743,-2.6744,-2.6698,-2.6716,-2.6718,-2.6733,-2.6742,-2.6742,-2.6726,-2.6723,-2.6748,-2.6751,-2.6755,-2.6816,-2.6759,-2.6761,-2.6763,-2.6891,-2.6893,-2.6895,0,0,0,0,0,0,-2.6681,-2.6688,-2.6742,-2.6715,-2.6721,-2.6719,-2.6736,-2.6735,-2.6744,-2.6744,-2.6743,-2.6736,-2.6747,-2.6751,-2.6789,-2.6817,-2.6762,-2.6765,-2.6889,-2.6892,-2.6894,-2.694,0,0,0,0,0,0,-2.6679,-2.6688,-2.6708,-2.6715,-2.6723,-2.6776,-2.6738,-2.6737,-2.6749,-2.6745,-2.6754,-2.6753,-2.6746,-2.6785,-2.6792,-2.6819,-2.6767,-2.6886,-2.689,-2.6893,-2.6936,-2.6944,-2.6951,0,0,0,0,0,-2.6676,-2.6719,-2.6709,-2.6716,-2.6748,-2.6778,-2.6782,-2.6773,-2.6751,-2.6771,-2.6771,-2.6753,-2.6813,-2.679,-2.6796,-2.6825,-2.6884,-2.6889,-2.6893,-2.6932,-2.6942,-2.6951,0,0,0,0,0,0,-2.6713,-2.672,-2.6709,-2.6755,-2.6766,-2.6772,-2.6797,-2.6783,-2.68,-2.6796,-2.6783,-2.6785,-2.6826,-2.6829,-2.6803,-2.6876,-2.6845,-2.6851,-2.6872,-2.6882,-2.6889,-2.6888,-2.6769,0,0,0,0,0,-2.6727,-2.6752,-2.6756,-2.6796,-2.6803,-2.6799,-2.6812,-2.6804,-2.6815,-2.6819,-2.6822,-2.6832,-2.6854,-2.6868,-2.6887,-2.6936,-2.6937,-2.6959,-2.6967,-2.6973,-2.6978,-2.7005,-2.7014,-2.691,-2.691,-2.691,0,0,-2.6755,-2.6762,-2.6778,-2.6804,-2.6812,-2.6837,-2.6803,-2.6831,-2.685,-2.6823,-2.6859,-2.6862,-2.6873,-2.6917,-2.6936,-2.692,-2.7007,-2.6978,-2.6983,-2.6985,-2.701,-2.702,-2.7029,-2.6913,-2.6912,-2.6912,0,0,-2.682,-2.6828,-2.6863,-2.6871,-2.6884,-2.6881,-2.689,-2.6898,-2.6899,-2.6935,-2.6916,-2.6937,-2.6974,-2.6983,-2.6992,-2.706,-2.7044,-2.7067,-2.7106,-2.7132,-2.7141,-2.7148,-2.7173,-2.7182,-2.7072,-2.7072,-2.7072,0,-2.6854,-2.6892,-2.6882,-2.6912,-2.6924,-2.6902,-2.6937,-2.6945,-2.6963,-2.6972,-2.6954,-2.7,-2.7006,-2.7052,-2.7068,-2.7076,-2.7086,-2.7066,-2.714,-2.7148,-2.7154,-2.7178,-2.7187,-2.7075,-2.7075,-2.7074,-2.7074,0,-2.6933,-2.6959,-2.6986,-2.7005,-2.702,-2.7052,-2.7047,-2.7063,-2.7054,-2.7053,-2.709,-2.7096,-2.7117,-2.7127,-2.7118,-2.7172,-2.7162,-2.7143,-2.7111,-2.7167,-2.7189,-2.7198,-2.7079,-2.7078,-2.7077,-2.7077,0,0,-2.7021,-2.7035,-2.7045,-2.7054,-2.7066,-2.7086,-2.7118,-2.7138,-2.7153,-2.7166,-2.7192,-2.7223,-2.7206,-2.7216,-2.7208,-2.7231,-2.7285,-2.7209,-2.7209,-2.7223,-2.7345,-2.736,-2.7371,-2.7275,-2.7276,-2.7278,-2.7345,0,-2.7087,-2.7142,-2.7134,-2.7187,-2.7211,-2.7191,-2.7218,-2.7228,-2.7228,-2.7248,-2.7248,-2.7271,-2.7246,-2.7252,-2.7274,-2.7274,-2.731,-2.7269,-2.7298,-2.73,-2.7297,-2.7382,-2.7398,-2.7461,-2.7353,-2.7355,-2.7356,0,-2.717,-2.7187,-2.7243,-2.7252,-2.7262,-2.7287,-2.7306,-2.7326,-2.7337,-2.7335,-2.7347,-2.7335,-2.7366,-2.7334,-2.7376,-2.7349,-2.736,-2.7362,-2.7364,-2.7367,-2.7331,-2.7388,-2.7481,-2.7491,-2.7369,-2.7368,-2.7367,0,-2.723,-2.7267,-2.7305,-2.7313,-2.7325,-2.7343,-2.7348,-2.7358,-2.7371,-2.7387,-2.7395,-2.7414,-2.7425,-2.744,-2.7433,-2.741,-2.7477,-2.7444,-2.7476,-2.7476,-2.7491,-2.7491,-2.7588,-2.7498,-2.7498,-2.7498,-2.7497,0,-2.7304,-2.7339,-2.7332,-2.7356,-2.7394,-2.7385,-2.7423,-2.7426,-2.7434,-2.7458,-2.744,-2.7463,-2.7452,-2.7473,-2.7468,-2.7504,-2.7508,-2.7508,-2.7506,-2.751,-2.751,-2.7517,-2.7513,-2.75,-2.7499,-2.7499,-2.7499,0,-2.7377,-2.7374,-2.7415,-2.7423,-2.7426,-2.7454,-2.746,-2.7482,-2.7481,-2.7511,-2.7517,-2.7515,-2.7539,-2.7534,-2.756,-2.7556,-2.7602,-2.7594,-2.7599,-2.7597,-2.763,-2.7627,-2.7736,-2.775,-2.765,-2.7651,-2.7652,0,-2.7425,-2.7451,-2.7463,-2.7478,-2.7485,-2.7509,-2.7523,-2.7514,-2.7529,-2.7544,-2.7564,-2.7587,-2.7605,-2.7644,-2.7645,-2.7665,-2.7658,-2.7695,-2.7661,-2.7664,-2.7659,-2.7658,-2.7661,-2.7702,-2.7703,-2.7704,-2.7704,0,-2.7509,-2.7507,-2.7528,-2.7549,-2.7566,-2.7582,-2.7596,-2.7609,-2.7601,-2.7619,-2.7644,-2.7658,-2.7686,-2.7709,-2.7727,-2.7732,-2.7717,-2.7715,-2.7724,-2.7728,-2.773,-2.773,-2.7618,-2.7713,-2.7712,-2.7711,-2.7711,-2.771,-2.7572,-2.7595,-2.7607,-2.7631,-2.7641,-2.7654,-2.7676,-2.7678,-2.7699,-2.7721,-2.7714,-2.7743,-2.7754,-2.7777,-2.7784,-2.7806,-2.7792,-2.7805,-2.7808,-2.7811,-2.7816,-2.7726,-2.7809,-2.7809,-2.7809,-2.7809,-2.7809,0,-2.7656,-2.7663,-2.7685,-2.7706,-2.7725,-2.771,-2.7725,-2.7742,-2.7768,-2.7779,-2.7798,-2.7827,-2.7849,-2.7852,-2.7873,-2.789,-2.7884,-2.7896,-2.7894,-2.7896,-2.7827,-2.7817,-2.79,-2.79,-2.79,-2.79,-2.79,-2.79,-2.7702,-2.7741,-2.774,-2.7783,-2.7789,-2.7818,-2.7828,-2.784,-2.785,-2.7883,-2.7902,-2.7904,-2.7912,-2.7933,-2.7953,-2.7953,-2.7962,-2.7977,-2.7974,-2.791,-2.7901,-2.7892,-2.7883,-2.7979,-2.7979,-2.8042,-2.8043,-2.8043]}]]